Regional Weather Roundup
Issued by NWS

Home | Current Version | Previous Version | Text Only | Print | Product List | Glossary Off
Versions: 1 2 3 4 5 6 7 8 9 10 11 12 13 14 15 16 17 18 19 20 21 22 23 24 25 26 27 28 29 30 31 32 33 34 35 36 37 38 39 40 41 42 43 44 45 46 47 48 49 50

000
ASUS43 KLSX 281959
RWRMO

WEATHER SUMMARY FOR MISSOURI
NATIONAL WEATHER SERVICE SPRINGFIELD MO
300 PM CDT TUE JUL 28 2015

NOTE: "FAIR" INDICATES FEW OR NO CLOUDS BELOW 12,000 FEET WITH NO
       SIGNIFICANT WEATHER AND/OR OBSTRUCTIONS TO VISIBILITY.
       CURRENT SKY AND/OR WEATHER CONDITIONS ARE NOT AVAILABLE FOR
       CHILLICOTHE AND FARMINGTON.

MOZ001>031-035>038-043-044-053-054-282100-
...NORTHERN AND WESTERN MISSOURI...

CITY           SKY/WX    TMP DP  RH WIND       PRES   REMARKS
KANSAS CTY INT PTSUNNY   94  75  54 S15       29.89S HX 105
KANSAS C DTWN  SUNNY     96  72  45 S14G25    29.87F HX 104
LEE`S SUMMIT   SUNNY     93  71  48 S12G23    29.91F HX 100
ST JOSEPH      SUNNY     93  76  57 S14       29.86S HX 105
CHILLICOTHE      N/A     94  77  57 S9        29.90F HX 108
KIRKSVILLE     MOSUNNY   92  74  55 S13G21    29.91F HX 101

$$
MOZ066>068-077>081-088>096-101>105-282100-
...SOUTHWEST MISSOURI...

CITY           SKY/WX    TMP DP  RH WIND       PRES   REMARKS
SPRINGFIELD    SUNNY     92  72  51 SW13      29.99F HX  99
JOPLIN         SUNNY     94  72  48 S16       29.96S HX 102

$$
MOZ032>034-039>042-045>050-055>058-069>072-282100-
...CENTRAL MISSOURI...

CITY           SKY/WX    TMP DP  RH WIND       PRES   REMARKS
COLUMBIA       MOSUNNY   93  76  57 W9        29.95S HX 105
JEFFERSON CITY MOSUNNY   94  74  52 S7        29.93S HX 104
ROLLA          MOSUNNY   92  76  59 SW8       29.96F HX 104
SEDALIA        SUNNY     96  74  48 S12       29.96S HX 107
OSAGE BEACH    MOSUNNY   93  73  52 SW8       29.96F HX 102

$$
MOZ051-052-059>065-282100-
...EAST CENTRAL MISSOURI...

CITY           SKY/WX    TMP DP  RH WIND       PRES   REMARKS
ST LOUIS INTL  MOSUNNY  100  73  41 W3        29.94F HX 110
SPIRIT OF STL  MOSUNNY   95  79  59 W7        29.93F HX 112
ST CHARLES     SUNNY     94  80  64 S5        29.93F HX 113

$$
MOZ072>076-082>087-097>100-106>115-282100-
...SOUTH CENTRAL AND SOUTHEAST MISSOURI...

CITY           SKY/WX    TMP DP  RH WIND       PRES   REMARKS
CAPE GIRARDEAU MOSUNNY   94  79  61 SW7       29.94F HX 111
FARMINGTON     MOSUNNY   93  75  55 SW3       30.01S HX 104
POPLAR BLUFF   SUNNY     94  78  60 SW8       29.95F HX 110
WEST PLAINS    MOSUNNY   92  71  50 S8        30.02F HX  98

$$


USA.gov is the U.S. government's official web portal to all federal, state and local government web resources and services.